Regional Weather Roundup
Issued by NWS

Home | Current Version | Previous Version | Text Only | Print | Product List | Glossary Off
Versions: 1 2 3 4 5 6 7 8 9 10 11 12 13 14 15 16 17 18 19 20 21 22 23 24 25 26 27 28 29 30 31 32 33 34 35 36 37 38 39 40 41 42 43 44 45 46 47 48 49 50

000
ASUS43 KIND 051709
RWRIN

WEATHER ROUNDUP FOR INDIANA
NATIONAL WEATHER SERVICE INDIANAPOLIS IN
1200 PM EST THU MAR 05 2015

NOTE: "FAIR" INDICATES FEW OR NO CLOUDS BELOW 12,000 FEET WITH NO
SIGNIFICANT WEATHER AND/OR OBSTRUCTIONS TO VISIBILITY.

* - STATION DOES NOT REPORT WEATHER SUCH AS PRECIPITATION OR FOG.

+ - STATION NOT QUALITY CONTROLLED BY THE NATIONAL WEATHER SERVICE.
    USE DATA WITH CAUTION...ESPECIALLY DEWPOINT AND RELATIVE
    HUMIDITY OBSERVATIONS.

INZ001>003-010>013-019-020-051800-
NORTHWEST INDIANA

CITY           SKY/WX    TMP DP  RH WIND       PRES   REMARKS
GARY /AIRPORT/ MOSUNNY  N/A N/A N/A NW12      30.47R
RENSSELAER +   SUNNY     19  10  68 W6        30.46R WCI  11
VALPARAISO     CLOUDY    17   6  62 NW10      30.44R WCI   5

$$

LMZ046-743>745-051800-
SOUTHERN LAKE MICHIGAN

STATION/POSITION TIME  TEMP WIND        PRES
                       AIR  DIR/SP/G
                 (UTC) (F)  (DEG/KT/KT) (MB)
MICHIGAN CITY    1700   18  280/ 13/ 16   N/A

$$

INZ004-005-014>016-021>024-051800-
NORTH CENTRAL INDIANA

CITY           SKY/WX    TMP DP  RH WIND       PRES   REMARKS
ELKHART        MOSUNNY   18   0  45 CALM      30.42S
GOSHEN         CLOUDY    18   3  52 CALM      30.41R
PERU/GRISSOM   PTSUNNY   18   5  56 N6        30.41R WCI  10
SOUTH BEND     MOSUNNY   18   6  59 NW5       30.42R WCI  11

$$

INZ006>009-017-018-025>027-051800-
NORTHEAST INDIANA

CITY           SKY/WX    TMP DP  RH WIND       PRES   REMARKS
ANGOLA *+      SUNNY     18   1  49 W6        30.38S WCI   9
FORT WAYNE     MOSUNNY   19   3  49 N7        30.40S WCI  10

$$

INZ028-029-035-036-043>045-051>053-051800-
WEST CENTRAL INDIANA

CITY           SKY/WX    TMP DP  RH WIND       PRES   REMARKS
CRAWFORDSVL +  SUNNY     15   1  54 NW9       30.44R WCI   3
GREENCASTLE +  SUNNY     19   3  49 NW7       30.43R WCI  10
LAFAYETTE      SUNNY     16   6  65 N7        30.46R WCI   6
TERRE HAUTE    SUNNY     19   5  54 N7        30.47R WCI  10

$$

INZ030>032-037>040-046>048-054>057-064-065-051800-
CENTRAL INDIANA

CITY           SKY/WX    TMP DP  RH WIND       PRES   REMARKS
COLUMBUS       MOSUNNY   21   7  53 N7        30.41R WCI  13
GREENWOOD *+   PTSUNNY   21   5  49 N7        30.40R WCI  13
INDIANAPOLIS   MOSUNNY   22   8  55 NW9       30.39R WCI  12
-EAGLE CREEK   MOSUNNY   20   8  60 NW6       30.40R WCI  12
KOKOMO *+      SUNNY     19   7  58 NW7       30.42R WCI  10
MT COMFORT *+  SUNNY     23  -2  33 N8        30.40R WCI  14
SHELBYVILLE    SUNNY     24   9  52 N7        30.39R WCI  16

$$

INZ033-034-041-042-049-050-058-059-051800-
EAST CENTRAL INDIANA

CITY           SKY/WX    TMP DP  RH WIND       PRES   REMARKS
MUNCIE         SUNNY     18   4  54 N8        30.39R WCI   8

$$

INZ060-061-067>069-081>083-085>088-051800-
SOUTHWEST INDIANA

CITY           SKY/WX    TMP DP  RH WIND       PRES   REMARKS
EVANSVILLE     SUNNY     24   7  48 NW13      30.48R WCI  12
HUNTINGBURG *+ SUNNY     21   7  53 NW13      30.45R WCI   9

$$

INZ062-063-066-070>080-084-089>092-051800-
SOUTH CENTRAL AND SOUTHEAST INDIANA

CITY           SKY/WX    TMP DP  RH WIND       PRES   REMARKS
BEDFORD +      MOSUNNY   23   9  54 NW5       30.42R WCI  17
BLOOMINGTON    SUNNY     22   8  55 N8        30.41R WCI  12
NORTH VERNON + PTSUNNY   23   9  54 N8        30.39R WCI  14
SEYMOUR +      PTSUNNY   25   9  50 N7        30.41R WCI  17

$$



USA.gov is the U.S. government's official web portal to all federal, state and local government web resources and services.